EST,Max TemperatureF,Mean TemperatureF,Min TemperatureF,Max Dew PointF,MeanDew PointF,Min DewpointF,Max Humidity, Mean Humidity, Min Humidity, Max Sea Level PressureIn, Mean Sea Level PressureIn, Min Sea Level PressureIn, Max VisibilityMiles, Mean VisibilityMiles, Min VisibilityMiles, Max Wind SpeedMPH, Mean Wind SpeedMPH, Max Gust SpeedMPH,PrecipitationIn, CloudCover, Events, WindDirDegrees
2013-12-1,36,30,23,30,25,15,89,82,67,30.34,30.15,30.05,10,6,1,8,1,,0.02,8,Snow,40
2013-12-2,37,32,27,32,29,24,92,87,79,30.04,29.95,29.88,10,9,6,8,3,,0.00,7,Snow,191
2013-12-3,33,32,30,31,30,28,96,91,85,29.97,29.92,29.88,7,3,0,5,0,,0.00,8,Fog,305
2013-12-4,37,28,19,24,22,16,88,72,59,30.21,30.09,29.94,10,10,8,8,4,,0.00,5,,268
2013-12-5,43,31,19,37,32,16,96,89,76,30.21,29.97,29.83,10,5,1,6,2,,0.05,7,Rain,306
2013-12-6,43,36,30,39,34,21,96,86,61,30.13,29.95,29.84,10,5,0,8,2,,0.34,7,Fog-Rain,267
2013-12-7,32,24,16,22,13,6,74,58,41,30.44,30.26,30.08,10,10,10,17,6,25,0.00,5,,299
2013-12-8,25,18,10,13,8,5,80,64,43,30.58,30.53,30.45,10,10,10,7,3,,0.00,2,,239
2013-12-9,37,28,19,29,19,7,89,67,53,30.48,30.07,29.81,10,9,2,25,7,39,0.00,8,Snow,181
2013-12-10,34,26,16,28,16,10,89,66,49,29.90,29.81,29.73,10,9,2,14,7,20,0.00,6,Snow,273
2013-12-11,24,16,9,15,11,4,80,67,57,30.14,30.02,29.93,10,6,0,13,7,24,0.00,7,Snow,247
2013-12-12,14,8,3,4,-2,-7,80,60,46,30.27,30.14,29.94,10,10,10,12,5,16,0.00,3,,251
2013-12-13,15,6,-5,10,3,-11,80,66,48,30.41,29.95,29.79,10,6,0,18,9,29,0.00,7,Snow,258
2013-12-14,10,0,-9,4,-4,-17,79,68,46,30.62,30.40,30.18,10,5,1,15,4,22,0.01,5,Snow,79
2013-12-15,21,16,12,17,13,5,85,78,68,30.15,29.69,29.44,10,3,0,21,8,26,0.22,8,Fog-Snow,80
2013-12-16,17,2,-15,13,0,-22,84,72,51,30.26,29.87,29.61,10,8,1,15,4,23,0.00,4,Snow,285
2013-12-17,10,-7,-24,4,-6,-30,83,73,58,30.31,30.12,29.99,10,6,0,12,1,,0.06,5,Fog-Snow,356
2013-12-18,25,16,6,17,10,2,88,78,66,30.02,29.96,29.85,10,7,2,8,1,,0.00,7,Snow,254
2013-12-19,33,26,19,26,21,17,92,76,66,30.07,29.98,29.91,10,9,4,6,3,,0.00,8,Snow,256
2013-12-20,34,31,28,32,30,25,96,89,82,30.10,29.92,29.85,9,3,1,5,0,,0.10,8,Rain-Snow,290
2013-12-21,46,40,33,43,35,32,97,92,83,29.90,29.83,29.75,9,2,0,8,0,,0.28,8,Fog-Rain,207
2013-12-22,39,36,33,38,35,33,100,93,86,29.99,29.83,29.64,10,7,2,21,5,29,0.57,8,Rain,70
2013-12-23,35,34,30,34,32,22,100,95,69,30.13,30.00,29.94,10,4,1,9,3,18,0.26,8,Rain,37
2013-12-24,30,19,8,21,12,-2,78,68,55,30.27,30.14,30.07,10,10,9,13,6,20,0.00,5,,288
2013-12-25,14,8,1,5,-2,-6,84,70,52,30.53,30.39,30.20,10,7,2,12,5,,0.00,5,Snow,276
2013-12-26,28,19,10,25,17,5,96,85,77,30.42,30.17,30.03,10,4,0,6,1,,0.07,8,Fog-Snow,296
2013-12-27,27,24,21,22,19,17,92,80,69,30.20,30.13,30.08,10,6,1,12,3,20,0.00,7,Snow,241
2013-12-28,35,22,10,30,20,7,95,83,75,30.12,30.03,29.93,10,8,1,6,1,,0.00,6,Snow,265
2013-12-29,36,28,21,34,29,21,100,94,79,29.99,29.78,29.54,8,3,0,7,1,,0.47,5,Fog-Rain-Snow,323
2013-12-30,34,18,1,33,19,-6,100,83,57,30.22,29.78,29.52,10,8,2,20,3,28,0.01,5,Snow,277
2013-12-31,10,5,0,7,1,-7,85,75,61,30.19,30.04,29.93,10,5,1,6,2,,0.00,7,Snow,263